User: anonymous   Login
Location: Haulchin
(50.3172°N, 3.4360°E)
Time: 21:46:04
(UTC+00:00)
Language:

RESURS DK-1 - Orbit

View from above orbital plane
View from above orbital plane
View from above satellite
View from above satellite

Ground track
Ground track

The orbit data is extracted from the following two-line orbital elements,

1 29228U 06021A   24205.45038600  .00004964  00000-0  33194-3 0  9997
2 29228  69.9374 328.7243 0006803 297.8461  62.2013 15.07588521997782
Epoch (UTC): 23 July 2024 10:48:33
Eccentricity: 0.0006803
inclination: 69.9374°
perigee height: 539 km
apogee height: 548 km
right ascension of ascending node: 328.7243°
argument of perigee: 297.8461°
revolutions per day: 15.07588521
mean anomaly at epoch: 62.2013°
orbit number at epoch: 99778

The dashed part of the orbit path shows where the satellite is in the earth's shadow,  

DLR